TimeEDT,TemperatureF,Dew PointF,Humidity,Sea Level PressureIn,VisibilityMPH,Wind Direction,Wind SpeedMPH,Gust SpeedMPH,PrecipitationIn,Events,Conditions,WindDirDegrees,DateUTC
12:08 AM,59.0,59.0,100,29.93,10.0,Calm,Calm,-,N/A,,Clear,0,2013-10-17 04:08:00
12:13 AM,59.0,59.0,100,29.93,8.0,Calm,Calm,-,N/A,,Clear,0,2013-10-17 04:13:00
12:23 AM,59.0,59.0,100,29.93,9.0,Calm,Calm,-,N/A,,Clear,0,2013-10-17 04:23:00
12:38 AM,59.0,59.0,100,29.92,9.0,Calm,Calm,-,N/A,,Scattered Clouds,0,2013-10-17 04:38:00
12:48 AM,59.0,59.0,100,29.93,10.0,Calm,Calm,-,N/A,,Mostly Cloudy,0,2013-10-17 04:48:00
12:58 AM,59.4,59.4,100,29.93,9.0,Calm,Calm,-,N/A,,Mostly Cloudy,0,2013-10-17 04:58:00
1:03 AM,59.0,59.0,100,29.91,8.0,East,1.2,-,N/A,,Scattered Clouds,100,2013-10-17 05:03:00
1:13 AM,59.0,59.0,100,29.92,10.0,Calm,Calm,-,N/A,,Mostly Cloudy,0,2013-10-17 05:13:00
1:33 AM,59.0,59.0,100,29.91,8.0,ESE,1.2,-,N/A,,Scattered Clouds,120,2013-10-17 05:33:00
1:53 AM,59.0,59.0,100,29.92,10.0,Calm,Calm,-,N/A,,Partly Cloudy,0,2013-10-17 05:53:00
1:58 AM,58.6,58.6,100,29.93,10.0,Calm,Calm,-,N/A,,Partly Cloudy,0,2013-10-17 05:58:00
2:08 AM,59.0,59.0,100,29.91,9.0,Calm,Calm,-,N/A,,Partly Cloudy,0,2013-10-17 06:08:00
2:13 AM,59.0,59.0,100,29.91,10.0,SSE,1.2,-,N/A,,Partly Cloudy,150,2013-10-17 06:13:00
2:58 AM,59.2,59.2,100,29.91,8.0,SE,1.2,-,N/A,,Clear,140,2013-10-17 06:58:00
3:18 AM,59.0,59.0,100,29.90,5.0,Calm,Calm,-,N/A,,Mostly Cloudy,0,2013-10-17 07:18:00
3:23 AM,59.0,59.0,100,29.90,7.0,Calm,Calm,-,N/A,,Mostly Cloudy,0,2013-10-17 07:23:00
3:28 AM,60.8,60.8,100,29.90,10.0,Calm,Calm,-,N/A,,Mostly Cloudy,0,2013-10-17 07:28:00
3:58 AM,60.3,60.3,100,29.91,10.0,Calm,Calm,-,N/A,,Mostly Cloudy,0,2013-10-17 07:58:00
4:13 AM,59.0,59.0,100,29.90,4.0,Calm,Calm,-,N/A,,Mostly Cloudy,0,2013-10-17 08:13:00
4:18 AM,59.0,59.0,100,29.89,3.0,Calm,Calm,-,N/A,,Mostly Cloudy,0,2013-10-17 08:18:00
4:33 AM,59.0,59.0,100,29.90,2.0,Calm,Calm,-,N/A,,Mostly Cloudy,0,2013-10-17 08:33:00
4:38 AM,59.0,59.0,100,29.90,3.0,Calm,Calm,-,N/A,,Scattered Clouds,0,2013-10-17 08:38:00
4:43 AM,59.0,59.0,100,29.90,7.0,Calm,Calm,-,N/A,,Scattered Clouds,0,2013-10-17 08:43:00
4:53 AM,59.0,59.0,100,29.89,2.0,Calm,Calm,-,N/A,,Partly Cloudy,0,2013-10-17 08:53:00
4:58 AM,59.0,59.0,100,29.90,1.8,Calm,Calm,-,N/A,,Scattered Clouds,0,2013-10-17 08:58:00
5:03 AM,59.0,59.0,100,29.90,4.0,West,1.2,-,N/A,,Scattered Clouds,280,2013-10-17 09:03:00
5:08 AM,59.0,59.0,100,29.90,10.0,Calm,Calm,-,N/A,,Scattered Clouds,0,2013-10-17 09:08:00
5:13 AM,59.0,59.0,100,29.90,9.0,Calm,Calm,-,N/A,,Scattered Clouds,0,2013-10-17 09:13:00
5:58 AM,59.0,59.0,100,29.91,9.0,SE,2.3,-,N/A,,Mostly Cloudy,140,2013-10-17 09:58:00
6:13 AM,59.0,59.0,100,29.90,10.0,North,1.2,-,N/A,,Mostly Cloudy,350,2013-10-17 10:13:00
6:43 AM,59.0,59.0,100,29.91,9.0,Calm,Calm,-,N/A,,Mostly Cloudy,0,2013-10-17 10:43:00
6:58 AM,59.4,59.4,100,29.92,8.0,ESE,1.2,-,N/A,,Mostly Cloudy,120,2013-10-17 10:58:00
7:18 AM,59.0,59.0,100,29.91,8.0,Calm,Calm,-,N/A,,Overcast,0,2013-10-17 11:18:00
7:58 AM,59.5,59.5,100,29.92,8.0,Calm,Calm,-,N/A,,Overcast,0,2013-10-17 11:58:00
8:40 AM,60.8,60.8,100,29.92,9.0,Calm,Calm,-,N/A,Rain,Light Rain,0,2013-10-17 12:40:00
8:49 AM,62.6,62.6,100,29.92,8.0,Calm,Calm,-,N/A,,Scattered Clouds,0,2013-10-17 12:49:00
8:58 AM,62.2,62.2,100,29.93,10.0,Calm,Calm,-,0.00,,Scattered Clouds,0,2013-10-17 12:58:00
9:13 AM,62.6,62.6,100,29.91,10.0,East,1.2,-,N/A,,Mostly Cloudy,80,2013-10-17 13:13:00
9:58 AM,64.4,64.4,100,29.92,10.0,Calm,Calm,-,N/A,,Mostly Cloudy,0,2013-10-17 13:58:00
10:58 AM,68.9,63.9,84,29.90,10.0,ESE,2.3,-,N/A,,Scattered Clouds,110,2013-10-17 14:58:00
11:58 AM,73.2,62.6,69,29.90,10.0,SSE,5.8,-,N/A,,Clear,150,2013-10-17 15:58:00
12:58 PM,75.2,62.2,64,29.87,10.0,Variable,3.5,-,N/A,,Partly Cloudy,0,2013-10-17 16:58:00
1:45 PM,75.2,62.6,65,29.82,10.0,SE,5.8,-,N/A,Rain,Light Rain,140,2013-10-17 17:45:00
1:57 PM,73.4,62.6,69,29.82,10.0,SSE,5.8,-,N/A,,Clear,160,2013-10-17 17:57:00
1:58 PM,73.4,64.4,73,29.84,10.0,SSE,4.6,-,0.00,,Clear,160,2013-10-17 17:58:00
2:58 PM,73.2,63.3,71,29.82,10.0,Variable,4.6,-,0.00,,Partly Cloudy,0,2013-10-17 18:58:00
3:58 PM,73.8,64.0,72,29.80,10.0,South,4.6,-,N/A,,Partly Cloudy,170,2013-10-17 19:58:00
4:58 PM,72.9,64.6,75,29.79,10.0,SSE,4.6,-,N/A,,Mostly Cloudy,150,2013-10-17 20:58:00
5:58 PM,72.5,62.8,71,29.77,10.0,Variable,5.8,-,N/A,,Partly Cloudy,0,2013-10-17 21:58:00
6:58 PM,70.2,63.0,78,29.76,10.0,Variable,3.5,-,N/A,,Mostly Cloudy,0,2013-10-17 22:58:00
7:58 PM,70.2,62.4,76,29.77,10.0,Variable,5.8,-,N/A,,Overcast,0,2013-10-17 23:58:00
8:18 PM,69.8,62.6,78,29.77,10.0,South,8.1,-,N/A,,Overcast,190,2013-10-18 00:18:00
8:58 PM,69.6,62.8,79,29.79,10.0,Variable,4.6,-,N/A,,Overcast,0,2013-10-18 00:58:00
9:55 PM,69.8,62.6,78,29.79,9.0,Variable,6.9,-,N/A,Rain,Light Rain,0,2013-10-18 01:55:00
9:58 PM,69.8,62.6,78,29.80,8.0,SW,8.1,-,N/A,Rain,Light Rain,230,2013-10-18 01:58:00
10:08 PM,68.0,64.4,88,29.79,10.0,Variable,3.5,-,N/A,,Light Drizzle,0,2013-10-18 02:08:00
10:18 PM,68.0,64.4,88,29.79,10.0,Variable,4.6,-,N/A,,Light Drizzle,0,2013-10-18 02:18:00
10:19 PM,68.0,64.4,88,29.79,10.0,SW,5.8,-,N/A,,Mostly Cloudy,230,2013-10-18 02:19:00
10:58 PM,67.8,64.0,88,29.82,10.0,WNW,5.8,-,0.00,,Overcast,290,2013-10-18 02:58:00
11:08 PM,68.0,64.4,88,29.81,10.0,West,5.8,-,N/A,,Overcast,280,2013-10-18 03:08:00
11:13 PM,68.0,64.4,88,29.81,10.0,WNW,6.9,-,N/A,,Overcast,300,2013-10-18 03:13:00
11:33 PM,68.0,60.8,78,29.82,10.0,WNW,11.5,17.3,N/A,,Overcast,300,2013-10-18 03:33:00
11:58 PM,66.2,57.7,74,29.84,10.0,NW,18.4,21.9,N/A,,Scattered Clouds,320,2013-10-18 03:58:00